Powrót do katalogu

ONEWEB-0186

AktywnyŁącznośćPO
NORAD 48229·PAYLOAD·🇬🇧 United Kingdom

Wystrzelony Apr 25, 2021 z Vostochny Cosmodrome

Loading…

Następne Przeloty (najbliższe 24 godziny)

TLE

ŚwieżeSource: CelesTrak SupGP

Epoka: Sep 14, 2026, 14:05 UTC

1 48229C 21031V   26257.58699491 -.00000990  00000+0 -26733-2 0  2574
2 48229  87.8908 271.8751 0001855  90.3609  59.3051 13.14506976    10

Śledź ONEWEB-0186 w czasie rzeczywistym z AllMySat

Download on the App Store